Time,TemperatureF,DewpointF,PressureIn,WindDirection,WindDirectionDegrees,WindSpeedMPH,WindSpeedGustMPH,Humidity,HourlyPrecipIn,Conditions,Clouds,dailyrainin,SoftwareType,DateUTC
2013-04-12 00:13:00,62.7,60.0,29.65,WSW,242,1.0,6.0,91,0.09,,,0.37,weatherlink.com 1.10,2013-04-12 04:13:00,
2013-04-12 00:30:00,62.1,60.0,29.64,NNW,331,0.0,3.0,93,0.12,,,0.42,weatherlink.com 1.10,2013-04-12 04:30:00,
2013-04-12 00:43:00,61.8,60.0,29.64,WNW,302,1.0,3.0,94,0.25,,,0.55,weatherlink.com 1.10,2013-04-12 04:43:00,
2013-04-12 00:58:00,61.7,60.0,29.64,East,84,1.0,6.0,95,0.35,,,0.71,weatherlink.com 1.10,2013-04-12 04:58:00,
2013-04-12 01:13:00,59.9,57.0,29.64,East,79,9.0,13.0,91,0.51,,,0.88,weatherlink.com 1.10,2013-04-12 05:13:00,
2013-04-12 01:28:00,57.4,55.0,29.69,East,90,2.0,8.0,92,0.63,,,1.04,weatherlink.com 1.10,2013-04-12 05:28:00,
2013-04-12 01:43:00,56.5,55.0,29.67,SW,220,2.0,3.0,94,0.65,,,1.20,weatherlink.com 1.10,2013-04-12 05:43:00,
2013-04-12 01:58:00,56.3,55.0,29.67,ESE,116,3.0,3.0,94,0.62,,,1.33,weatherlink.com 1.10,2013-04-12 05:58:00,
2013-04-12 02:13:00,56.0,54.0,29.67,East,101,1.0,3.0,94,0.57,,,1.45,weatherlink.com 1.10,2013-04-12 06:13:00,
2013-04-12 02:28:00,55.9,55.0,29.65,East,101,0.0,2.0,95,0.51,,,1.55,weatherlink.com 1.10,2013-04-12 06:28:00,
2013-04-12 02:43:00,55.8,54.0,29.65,East,101,0.0,2.0,95,0.43,,,1.63,weatherlink.com 1.10,2013-04-12 06:43:00,
2013-04-12 02:58:00,55.7,54.0,29.66,East,101,0.0,1.0,95,0.37,,,1.70,weatherlink.com 1.10,2013-04-12 06:58:00,
2013-04-12 03:13:00,55.7,54.0,29.63,East,101,0.0,1.0,95,0.31,,,1.76,weatherlink.com 1.10,2013-04-12 07:13:00,
2013-04-12 03:28:00,55.7,55.0,29.60,WSW,252,0.0,4.0,96,0.26,,,0.04,weatherlink.com 1.10,2013-04-12 07:28:00,
2013-04-12 03:43:00,55.7,55.0,29.60,North,5,1.0,2.0,96,0.19,,,0.06,weatherlink.com 1.10,2013-04-12 07:43:00,
2013-04-12 03:58:00,56.6,55.0,29.58,SSW,210,5.0,10.0,95,0.12,,,0.06,weatherlink.com 1.10,2013-04-12 07:58:00,
2013-04-12 04:13:00,57.9,55.0,29.60,SSW,208,2.0,5.0,89,0.06,,,0.06,weatherlink.com 1.10,2013-04-12 08:13:00,
2013-04-12 04:28:00,58.6,55.0,29.60,WSW,250,3.0,6.0,88,0.02,,,0.06,weatherlink.com 1.10,2013-04-12 08:28:00,
2013-04-12 04:43:00,59.5,55.0,29.59,SW,232,3.0,11.0,86,0.00,,,0.06,weatherlink.com 1.10,2013-04-12 08:43:00,
2013-04-12 04:58:00,59.9,55.0,29.58,SW,234,1.0,8.0,85,0.00,,,0.06,weatherlink.com 1.10,2013-04-12 08:58:00,
2013-04-12 05:13:00,59.0,55.0,29.57,SW,219,0.0,7.0,87,0.00,,,0.06,weatherlink.com 1.10,2013-04-12 09:13:00,
2013-04-12 05:28:00,58.5,56.0,29.58,SW,229,3.0,5.0,90,0.02,,,0.08,weatherlink.com 1.10,2013-04-12 09:28:00,
2013-04-12 05:43:00,57.6,56.0,29.58,West,267,0.0,6.0,93,0.07,,,0.13,weatherlink.com 1.10,2013-04-12 09:43:00,
2013-04-12 05:58:00,57.2,56.0,29.58,NNW,346,0.0,2.0,94,0.13,,,0.19,weatherlink.com 1.10,2013-04-12 09:58:00,
2013-04-12 06:13:00,57.0,56.0,29.58,ESE,107,0.0,3.0,95,0.17,,,0.23,weatherlink.com 1.10,2013-04-12 10:13:00,
2013-04-12 06:28:00,56.8,55.0,29.57,ESE,106,0.0,0.0,95,0.15,,,0.24,weatherlink.com 1.10,2013-04-12 10:28:00,
2013-04-12 06:43:00,56.6,55.0,29.57,South,185,1.0,2.0,95,0.10,,,0.24,weatherlink.com 1.10,2013-04-12 10:43:00,
2013-04-12 06:58:00,56.6,55.0,29.58,South,184,1.0,2.0,95,0.05,,,0.24,weatherlink.com 1.10,2013-04-12 10:58:00,
2013-04-12 07:14:00,56.7,56.0,29.59,ENE,74,0.0,2.0,96,0.02,,,0.25,weatherlink.com 1.10,2013-04-12 11:14:00,
2013-04-12 07:29:00,56.7,56.0,29.59,ENE,74,0.0,3.0,96,0.02,,,0.26,weatherlink.com 1.10,2013-04-12 11:29:00,
2013-04-12 07:44:00,56.9,56.0,29.61,East,92,0.0,5.0,96,0.02,,,0.26,weatherlink.com 1.10,2013-04-12 11:44:00,
2013-04-12 07:59:00,57.1,56.0,29.62,NE,55,5.0,9.0,96,0.02,,,0.26,weatherlink.com 1.10,2013-04-12 11:59:00,
2013-04-12 08:14:00,57.0,56.0,29.62,ESE,108,0.0,5.0,95,0.00,,,0.26,weatherlink.com 1.10,2013-04-12 12:14:00,
2013-04-12 08:29:00,57.2,56.0,29.63,ESE,105,0.0,4.0,94,0.00,,,0.26,weatherlink.com 1.10,2013-04-12 12:29:00,
2013-04-12 08:44:00,57.2,56.0,29.64,East,96,0.0,7.0,94,0.00,,,0.26,weatherlink.com 1.10,2013-04-12 12:44:00,
2013-04-12 08:59:00,57.2,55.0,29.64,ESE,107,7.0,10.0,93,0.00,,,0.26,weatherlink.com 1.10,2013-04-12 12:59:00,
2013-04-12 09:14:00,56.5,54.0,29.65,East,86,3.0,8.0,92,0.00,,,0.26,weatherlink.com 1.10,2013-04-12 13:14:00,
2013-04-12 09:29:00,56.2,54.0,29.66,ENE,57,3.0,11.0,91,0.00,,,0.26,weatherlink.com 1.10,2013-04-12 13:29:00,
2013-04-12 09:44:00,55.6,53.0,29.67,East,99,3.0,8.0,91,0.00,,,0.26,weatherlink.com 1.10,2013-04-12 13:44:00,
2013-04-12 09:59:00,55.0,53.0,29.68,ENE,75,3.0,7.0,91,0.00,,,0.26,weatherlink.com 1.10,2013-04-12 13:59:00,
2013-04-12 10:14:00,55.1,53.0,29.67,ESE,103,2.0,7.0,91,0.00,,,0.26,weatherlink.com 1.10,2013-04-12 14:14:00,
2013-04-12 10:29:00,54.9,52.0,29.68,ESE,121,1.0,5.0,89,0.00,,,0.26,weatherlink.com 1.10,2013-04-12 14:29:00,
2013-04-12 10:44:00,55.5,52.0,29.70,ESE,109,5.0,10.0,87,0.00,,,0.26,weatherlink.com 1.10,2013-04-12 14:44:00,
2013-04-12 10:59:00,55.8,52.0,29.70,ESE,112,1.0,10.0,86,0.00,,,0.26,weatherlink.com 1.10,2013-04-12 14:59:00,
2013-04-12 11:14:00,56.6,52.0,29.70,ESE,120,1.0,8.0,85,0.00,,,0.26,weatherlink.com 1.10,2013-04-12 15:14:00,
2013-04-12 11:32:00,57.7,53.0,29.69,ESE,105,4.0,10.0,84,0.00,,,0.26,weatherlink.com 1.10,2013-04-12 15:32:00,
2013-04-12 11:44:00,57.3,52.0,29.70,East,94,6.0,10.0,83,0.00,,,0.26,weatherlink.com 1.10,2013-04-12 15:44:00,
2013-04-12 11:59:00,57.6,53.0,29.70,East,101,5.0,10.0,84,0.00,,,0.26,weatherlink.com 1.10,2013-04-12 15:59:00,
2013-04-12 12:14:00,57.9,52.0,29.70,East,96,2.0,10.0,82,0.00,,,0.26,weatherlink.com 1.10,2013-04-12 16:14:00,
2013-04-12 12:29:00,57.5,52.0,29.70,ENE,69,4.0,11.0,82,0.00,,,0.26,weatherlink.com 1.10,2013-04-12 16:29:00,
2013-04-12 12:44:00,58.5,53.0,29.70,ESE,115,4.0,11.0,82,0.00,,,0.26,weatherlink.com 1.10,2013-04-12 16:44:00,
2013-04-12 12:59:00,58.5,53.0,29.69,ESE,107,4.0,12.0,81,0.00,,,0.26,weatherlink.com 1.10,2013-04-12 16:59:00,
2013-04-12 13:14:00,59.1,54.0,29.69,ENE,75,4.0,14.0,82,0.00,,,0.26,weatherlink.com 1.10,2013-04-12 17:14:00,
2013-04-12 13:29:00,59.1,53.0,29.69,ESE,108,2.0,13.0,80,0.00,,,0.26,weatherlink.com 1.10,2013-04-12 17:29:00,
2013-04-12 13:44:00,58.9,52.0,29.70,East,98,8.0,11.0,79,0.00,,,0.26,weatherlink.com 1.10,2013-04-12 17:44:00,
2013-04-12 13:59:00,58.5,52.0,29.70,East,92,3.0,13.0,80,0.00,,,0.26,weatherlink.com 1.10,2013-04-12 17:59:00,
2013-04-12 14:14:00,58.4,52.0,29.70,East,95,6.0,14.0,79,0.00,,,0.26,weatherlink.com 1.10,2013-04-12 18:14:00,
2013-04-12 14:29:00,57.9,51.0,29.70,ESE,116,12.0,15.0,79,0.00,,,0.26,weatherlink.com 1.10,2013-04-12 18:29:00,
2013-04-12 15:29:00,60.1,48.0,29.70,ESE,111,1.0,11.0,65,0.00,,,0.26,weatherlink.com 1.10,2013-04-12 19:29:00,
2013-04-12 15:44:00,60.5,48.0,29.70,ESE,123,0.0,14.0,63,0.00,,,0.26,weatherlink.com 1.10,2013-04-12 19:44:00,
2013-04-12 15:59:00,60.7,48.0,29.70,ESE,104,9.0,14.0,63,0.00,,,0.26,weatherlink.com 1.10,2013-04-12 19:59:00,
2013-04-12 16:14:00,61.2,45.0,29.71,ESE,114,2.0,13.0,56,0.00,,,0.26,weatherlink.com 1.10,2013-04-12 20:14:00,
2013-04-12 16:29:00,61.5,41.0,29.71,East,81,7.0,15.0,48,0.00,,,0.26,weatherlink.com 1.10,2013-04-12 20:29:00,
2013-04-12 16:45:00,61.6,42.0,29.71,SE,124,2.0,12.0,48,0.00,,,0.26,weatherlink.com 1.10,2013-04-12 20:45:00,
2013-04-12 17:00:00,61.8,44.0,29.72,ENE,69,4.0,15.0,52,0.00,,,0.26,weatherlink.com 1.10,2013-04-12 21:00:00,
2013-04-12 17:15:00,61.4,44.0,29.72,ESE,111,3.0,14.0,54,0.00,,,0.26,weatherlink.com 1.10,2013-04-12 21:15:00,
2013-04-12 17:30:00,61.2,43.0,29.72,SE,136,8.0,11.0,51,0.00,,,0.26,weatherlink.com 1.10,2013-04-12 21:30:00,
2013-04-12 17:45:00,61.0,43.0,29.73,ESE,111,1.0,8.0,51,0.00,,,0.26,weatherlink.com 1.10,2013-04-12 21:45:00,
2013-04-12 18:00:00,61.1,44.0,29.73,ENE,67,7.0,8.0,53,0.00,,,0.26,weatherlink.com 1.10,2013-04-12 22:00:00,
2013-04-12 18:15:00,61.0,43.0,29.73,ESE,118,1.0,8.0,52,0.00,,,0.26,weatherlink.com 1.10,2013-04-12 22:15:00,
2013-04-12 18:30:00,59.0,44.0,29.73,ESE,107,3.0,8.0,57,0.00,,,0.26,weatherlink.com 1.10,2013-04-12 22:30:00,
2013-04-12 18:45:00,57.4,42.0,29.73,East,96,2.0,13.0,57,0.00,,,0.26,weatherlink.com 1.10,2013-04-12 22:45:00,
2013-04-12 19:02:00,56.0,43.0,29.74,ESE,111,0.0,11.0,61,0.00,,,0.26,weatherlink.com 1.10,2013-04-12 23:02:00,
2013-04-12 19:15:00,55.2,42.0,29.74,ESE,115,1.0,9.0,62,0.00,,,0.26,weatherlink.com 1.10,2013-04-12 23:15:00,
2013-04-12 19:30:00,54.5,42.0,29.74,ESE,111,2.0,8.0,62,0.00,,,0.26,weatherlink.com 1.10,2013-04-12 23:30:00,
2013-04-12 19:45:00,54.0,41.0,29.75,ESE,121,0.0,9.0,62,0.00,,,0.26,weatherlink.com 1.10,2013-04-12 23:45:00,
2013-04-12 20:00:00,53.3,40.0,29.75,ESE,115,0.0,5.0,62,0.00,,,0.26,weatherlink.com 1.10,2013-04-13 00:00:00,
2013-04-12 20:15:00,52.6,40.0,29.76,East,100,2.0,5.0,62,0.00,,,0.26,weatherlink.com 1.10,2013-04-13 00:15:00,
2013-04-12 20:30:00,52.1,40.0,29.77,East,97,6.0,9.0,63,0.00,,,0.26,weatherlink.com 1.10,2013-04-13 00:30:00,
2013-04-12 20:45:00,51.7,40.0,29.77,ENE,57,0.0,9.0,64,0.00,,,0.26,weatherlink.com 1.10,2013-04-13 00:45:00,
2013-04-12 21:00:00,51.4,39.0,29.78,East,96,5.0,8.0,64,0.00,,,0.26,weatherlink.com 1.10,2013-04-13 01:00:00,
2013-04-12 21:15:00,51.3,40.0,29.79,ESE,119,0.0,7.0,65,0.00,,,0.26,weatherlink.com 1.10,2013-04-13 01:15:00,
2013-04-12 21:30:00,51.0,40.0,29.80,ESE,116,0.0,8.0,65,0.00,,,0.26,weatherlink.com 1.10,2013-04-13 01:30:00,
2013-04-12 21:45:00,50.5,39.0,29.81,ESE,105,0.0,8.0,66,0.00,,,0.26,weatherlink.com 1.10,2013-04-13 01:45:00,
2013-04-12 22:00:00,50.1,39.0,29.82,NE,55,0.0,7.0,67,0.00,,,0.26,weatherlink.com 1.10,2013-04-13 02:00:00,
2013-04-12 22:15:00,49.9,39.0,29.84,ENE,73,0.0,5.0,66,0.00,,,0.26,weatherlink.com 1.10,2013-04-13 02:15:00,
2013-04-12 22:30:00,49.2,39.0,29.85,North,5,0.0,3.0,68,0.00,,,0.26,weatherlink.com 1.10,2013-04-13 02:30:00,
2013-04-12 22:45:00,48.7,39.0,29.85,NE,45,1.0,3.0,68,0.00,,,0.26,weatherlink.com 1.10,2013-04-13 02:45:00,
2013-04-12 23:00:00,48.6,38.0,29.84,ESE,107,0.0,3.0,68,0.00,,,0.26,weatherlink.com 1.10,2013-04-13 03:00:00,
2013-04-12 23:15:00,48.5,38.0,29.85,SE,124,1.0,3.0,67,0.00,,,0.26,weatherlink.com 1.10,2013-04-13 03:15:00,
2013-04-12 23:30:00,49.0,38.0,29.85,ESE,103,3.0,7.0,66,0.00,,,0.26,weatherlink.com 1.10,2013-04-13 03:30:00,
2013-04-12 23:45:00,48.5,38.0,29.84,ESE,106,2.0,8.0,66,0.00,,,0.26,weatherlink.com 1.10,2013-04-13 03:45:00,